Location: Gloden
(48.4833°N, 15.3167°E)
Time: 19:36:17
(UTC+00:00)

Cosmos 2026 Rocket - Pass Details

Date: 15 December 2019
Orbit: 940 x 1000 km, 82.9° (Epoch: 22 January)

Event Time Altitude Azimuth Distance (km) Brightness Sun altitude
Exits shadow 04:40:41 25° 319° (NW) 1,841 5.0 -19.3°
Maximum altitude 04:43:28 38° 272° (W) 1,450 4.4 -18.8°
Drops below altitude 10° 04:49:09 10° 207° (SSW) 2,733 6.2 -17.9°
Sets 04:51:51 0° 199° (SSW) 3,685 7.0 -17.5°
